Home   Weather   Viana do Castelo   Past weeks

Flag for Portugal Past Weather in Viana do Castelo, Portugal — Yesterday and Last 2 Weeks

63 °F

Passing clouds.

Feels Like: 63 °F
Forecast: 59 / 72 °F
Wind: 10 mph from Southeast

Location: Porto / Pedras Rubras

Current Time: Oct 25, 2016 at 7:52:20 AM

Latest Report: Oct 25, 2016 at 7:30 AM

Visibility: N/A

Pressure: 29.86 "Hg

Humidity: 77%

Dew Point: 55 °F

Location of Viana do CasteloLocation

Past Weather in Viana do Castelo — Graph


Viana do Castelo Temperature Yesterday

Maximum temperature yesterday: 70 °F (at 3:00 PM)
Minimum temperature yesterday: 54 °F (at 12:00 AM)
Average temperature yesterday: 61 °F

High & Low Weather Summary for the Past Weeks

High77 °F (Oct 19, 3:30 PM)100% (Oct 10, 6:00 AM)30.27 "Hg (Oct 10, 6:00 AM)
Low48 °F (Oct 14, 7:00 AM)50% (Oct 24, 4:00 PM)29.45 "Hg (Oct 23, 5:00 AM)
Average62 °F89%29.87 "Hg
* Reported Oct 10 6:00 AM — Oct 25 6:30 AM, Viana do Castelo, Weather by CustomWeather, © 2016

Note: Actual official high and low records may vary slightly from our data, if they occured in-between our weather recording intervals... More about our weather records


Viana do Castelo Weather History for the Previous 24 Hours

Scroll right to see more
Time TempWeatherWind HumidityBarometerVisibility
6:30 AM
Tue, Oct 25
63 °FPassing clouds.10 mph77%29.83 "HgN/A
6:00 AM63 °FPassing clouds.10 mph77%29.83 "HgN/A
5:30 AM63 °FPassing clouds.9 mph77%29.83 "HgN/A
5:00 AM63 °FClear.9 mph77%29.83 "Hg10 mi
4:30 AM63 °FClear.8 mph77%29.83 "Hg10 mi
4:00 AM63 °FLight rain. Passing clouds.9 mph77%29.83 "HgN/A
3:30 AM63 °FLight rain. Passing clouds.8 mph77%29.83 "HgN/A
3:00 AM64 °FClear.8 mph68%29.80 "Hg10 mi
2:30 AM64 °FClear.9 mph68%29.80 "Hg10 mi
2:00 AM63 °FLight rain. Passing clouds.10 mph73%29.80 "HgN/A
1:30 AM63 °FLight rain. Passing clouds.9 mph73%29.80 "HgN/A
1:00 AM63 °FLight rain. Passing clouds.10 mph73%29.80 "HgN/A
12:30 AM63 °FLight rain. Passing clouds.10 mph73%29.80 "HgN/A
12:00 AM63 °FClear.9 mph73%29.80 "Hg10 mi
11:30 PM
Mon, Oct 24
63 °FLight rain. Passing clouds.7 mph73%29.80 "HgN/A
11:00 PM64 °FClear.8 mph64%29.80 "Hg10 mi
10:30 PM64 °FClear.8 mph64%29.80 "Hg10 mi
10:00 PM64 °FClear.8 mph64%29.80 "Hg10 mi
9:30 PM64 °FClear.9 mph64%29.80 "Hg10 mi
9:00 PM64 °FClear.9 mph64%29.77 "Hg10 mi
8:30 PM64 °FPassing clouds.8 mph68%29.77 "HgN/A
8:00 PM64 °FPassing clouds.7 mph68%29.77 "HgN/A
7:30 PM63 °FClear.5 mph73%29.77 "Hg10 mi
7:00 PM64 °FPassing clouds.5 mph68%29.77 "HgN/A
6:30 PM64 °FSunny.6 mph73%29.74 "Hg10 mi
6:00 PM66 °FPassing clouds.3 mph64%29.74 "HgN/A
5:30 PM68 °FSunny.6 mph60%29.74 "Hg10 mi
5:00 PM68 °FPassing clouds.5 mph64%29.74 "HgN/A
4:30 PM66 °FScattered clouds.3 mph68%29.74 "HgN/A
4:00 PM70 °FScattered clouds.1 mph50%29.74 "HgN/A
3:30 PM68 °FScattered clouds.3 mph60%29.74 "HgN/A
3:00 PM70 °FScattered clouds.5 mph57%29.74 "HgN/A
2:30 PM68 °FScattered clouds.10 mph56%29.74 "HgN/A
2:00 PM66 °FScattered clouds.9 mph56%29.74 "HgN/A
1:30 PM68 °FPassing clouds.10 mph56%29.74 "HgN/A
1:00 PM66 °FPassing clouds.9 mph60%29.74 "HgN/A
12:30 PM66 °FPassing clouds.10 mph60%29.74 "HgN/A
12:00 PM64 °FPassing clouds.13 mph64%29.74 "HgN/A
11:30 AM64 °FPassing clouds.12 mph64%29.74 "HgN/A
11:00 AM63 °FPassing clouds.12 mph73%29.74 "HgN/A
10:30 AM63 °FPassing clouds.10 mph68%29.74 "HgN/A
10:00 AM61 °FPassing clouds.10 mph72%29.74 "HgN/A
9:30 AM57 °FPassing clouds.9 mph77%29.74 "HgN/A
9:00 AM57 °FPassing clouds.9 mph77%29.74 "HgN/A
8:30 AM54 °FPassing clouds.9 mph88%29.71 "HgN/A
8:00 AM54 °FPassing clouds.8 mph82%29.71 "HgN/A
7:30 AM54 °FPassing clouds.9 mph88%29.68 "HgN/A
7:00 AM54 °FPassing clouds.7 mph88%29.68 "HgN/A
Weather by CustomWeather, © 2016

See weather overviewHow to use our weather pages